This demonstration page uses our WeatherBlox Daily Observations layout. Learn more.

Left ArrowRight Arrow

30.21309, -93.2044

Hourly Observations for March 15, 2015

Temp ( °F °C ) Dew Point ( °F °C ) Humidity (%) Winds ( mph kmh ) Pressure ( in mb ) Visibility ( mi km ) Precip ( " mm )
12:15 am 00:15 Clear 61 15.9 54 12.2 79 79 N 3 6 30.15 1021 10 16 0.00 0.00
12:35 am 00:35 Clear 61 15.9 54 12.2 79 79 Calm 30.15 1021 10 16 0.00 0.00
12:55 am 00:55 Clear 60 15.6 54 12.3 81 81 WNW 3 6 30.15 1021 10 16 0.00 0.00
1:15 am 01:15 Clear 59 15.2 54 12.3 83 83 WNW 5 7 30.15 1021 10 16 0.00 0.00
1:35 am 01:35 Clear 58 14.3 54 12 86 86 NW 5 7 30.15 1021 10 16 0.00 0.00
1:55 am 01:55 Clear 58 14.5 54 12.1 86 86 WNW 5 7 30.15 1021 10 16 0.00 0.00
2:15 am 02:15 Clear 58 14.5 54 12 85 85 Calm 30.15 1021 10 16 0.00 0.00
2:35 am 02:35 Clear 58 14.3 53 11.8 85 85 Calm 30.15 1021 10 16 0.00 0.00
2:55 am 02:55 Clear 57 14 54 12 88 88 Calm 30.15 1021 10 16 0.00 0.00
3:15 am 03:15 Clear 56 13.6 54 12 90 90 Calm 30.15 1021 10 16 0.00 0.00
3:35 am 03:35 Clear 56 13.5 53 11.8 90 90 WNW 3 6 30.15 1021 10 16 0.00 0.00
3:55 am 03:55 Clear 56 13.6 54 12 90 90 Calm 30.18 1022 10 16 0.00 0.00
4:15 am 04:15 Clear 57 13.7 54 12 90 90 NW 3 6 30.18 1022 10 16 0.00 0.00
4:35 am 04:35 Clear 56 13.5 54 12.1 91 91 WNW 5 7 30.18 1022 10 16 0.00 0.00
4:55 am 04:55 Clear 57 13.8 54 12.1 90 90 NW 5 7 30.18 1022 10 16 0.00 0.00
5:15 am 05:15 Clear 56 13.6 54 12 90 90 WNW 6 9 30.18 1022 10 16 0.00 0.00
6:00 am 06:00 Mostly Clear 55 13 54 12 94 94 Calm 30.21 1023 10 16 0.00 0.00
6:50 am 06:50 Mostly Clear 55 13 54 12 94 94 Calm 30.21 1023 10 16 0.00 0.00
7:50 am 07:50 Mostly Sunny 55 13 54 12 94 94 Calm 30.21 1023 10 16 0.00 0.00
8:50 am 08:50 Mostly Sunny 57 14 54 12 88 88 NNW 3 6 30.24 1024 10 16 0.00 0.00
9:50 am 09:50 Mostly Sunny 63 17 55 13 77 77 NE 3 6 30.24 1024 10 16 0.00 0.00
10:50 am 10:50 Mostly Sunny 66 19 57 14 73 73 Calm 30.24 1024 10 16 0.00 0.00
11:50 am 11:50 Mostly Sunny 70 21 57 14 64 64 SE 3 6 30.24 1024 10 16 0.00 0.00
12:50 pm 12:50 Mostly Sunny 72 22 57 14 61 61 S 5 7 30.24 1024 10 16 0.00 0.00
1:50 pm 13:50 Mostly Sunny 73 23 55 13 53 53 SW 6 9 30.21 1023 10 16 0.00 0.00
3:50 pm 15:50 Mostly Sunny 75 24 54 12 47 47 SW 6 9 30.21 1023 10 16 0.00 0.00
4:50 pm 16:50 Mostly Sunny 75 24 55 13 50 50 SSW 5 7 30.21 1023 10 16 0.00 0.00
5:50 pm 17:50 Mostly Sunny 75 24 54 12 47 47 S 3 6 30.21 1023 10 16 0.00 0.00
9:50 pm 21:50 Mostly Clear 66 19 55 13 68 68 SW 3 6 30.27 1025 10 16 0.00 0.00
10:15 pm 22:15 Clear 65 18.2 55 12.8 71 71 Calm 30.24 1024 10 16 0.00 0.00
10:35 pm 22:35 Clear 65 18.5 55 12.7 69 69 SW 3 6 30.24 1024 10 16 0.00 0.00
10:55 pm 22:55 Clear 66 19 55 12.6 67 67 WSW 3 6 30.24 1024 10 16 0.00 0.00
11:15 pm 23:15 Clear 64 17.5 55 13 75 75 W 3 6 30.24 1024 10 16 0.00 0.00
11:35 pm 23:35 Clear 62 16.8 55 12.8 77 77 NNW 3 6 30.24 1024 10 16 0.00 0.00
11:55 pm 23:55 Clear 62 16.6 56 13.1 80 80 NNW 5 7 30.24 1024 10 16 0.00 0.00

Powered by AerisWeather